Skip Page Navigation
NASA JPL Caltech
NASA Logo - Jet Propulsion Laboratory + View the NASA Portal
+ Center for Near-Earth Object Studies
JPL Home Earth Solar System Stars & Galaxies Technology
JPL Solar System Dynamics
BODIES ORBITS EPHEMERIDES TOOLS PHYSICAL DATA DISCOVERY FAQ SITE MAP
JPL Small-Body Database Browser
Search: [ help ]  
34022 (2000 OY23)
Classification: Main-belt Asteroid          SPK-ID: 2034022
Ephemeris | Orbit Diagram | Orbital Elements | Mission Design | Physical Parameters | Discovery Circumstances | Close-Approach Data ]

[ show orbit diagram ]
Orbital Elements at Epoch 2459000.5 (2020-May-31.0) TDB
Reference: JPL 22 (heliocentric ecliptic J2000)
 Element Value Uncertainty (1-sigma)   Units 
e .2989497148374545 4.7891e-08  
a 3.043897192425428 2.3228e-08 au
q 2.133924994755318 1.5158e-07 au
i 2.06788520051339 3.992e-06 deg
node 108.6755388206456 0.00015282 deg
peri 234.6688848691037 0.00015292 deg
M 231.9702616492671 1.0097e-05 deg
tp 2459690.345370513159
(2022-Apr-20.84537051)
6.1101e-05 TDB
period 1939.739443225345
5.31
2.2203e-05
6.079e-08
d
yr
n .1855919367198112 2.1244e-09 deg/d
Q 3.953869390095538 3.0172e-08 au
  Orbit Determination Parameters
   # obs. used (total)      979  
   data-arc span      32345 days (88.56 yr)  
   first obs. used      1931-10-06  
   last obs. used      2020-04-26  
   planetary ephem.      DE431  
   SB-pert. ephem.      SB431-N16  
   condition code      0  
   norm. resid. RMS      .5427  
   source      ORB  
   producer      Otto Matic  
   solution date      2020-May-20 07:43:47  

Additional Information
 Earth MOID = 1.127 au 
 Jupiter MOID = 1.46643 au 
 T_jup = 3.168 
[ hide covariance matrix ]
Orbital Elements at Epoch 2456388.5 (2013-Apr-06.0) TDB
Reference: JPL 22 (heliocentric ecliptic J2000)
 Element Value Uncertainty (1-sigma)   Units 
e .2963067070859216 4.8079e-08  
q 2.145828526678287 1.527e-07 au
tp 2455809.011667145474
(2011-Sep-04.51166715)
3.2532e-05 TDB
node 108.6704882893798 0.00015269 deg
peri 235.0085876869477 0.00015279 deg
i 2.067262287628063 3.9878e-06 deg
  Orbit Determination Parameters
   # obs. used (total)      979  
   data-arc span      32345 days (88.56 yr)  
   first obs. used      1931-10-06  
   last obs. used      2020-04-26  
   planetary ephem.      DE431  
   SB-pert. ephem.      SB431-N16  
   condition code      0  
   norm. resid. RMS      .5427  
   source      ORB  
   producer      Otto Matic  
   solution date      2020-May-20 07:43:47  

Additional Information
 Jupiter MOID = 1.46643 au 
 T_jup = 3.168 
Orbit Covariance (6×6)
  e q tp node peri i
e 2.311586929472716E-15 -7.303348805218835E-15 2.120699104255764E-13 3.740174841826997E-14 3.778129804740188E-15 -1.066930930682704E-15
q -7.303348805218835E-15 2.331661695040457E-14 -5.24780875816874E-13 -1.194653754049344E-13 2.325990030624685E-14 3.600833077248366E-15
tp 2.120699104255764E-13 -5.24780875816874E-13 1.058311081650451E-9 -4.136436407710735E-12 2.335695759358373E-10 -8.183116425930321E-14
node 3.740174841826997E-14 -1.194653754049344E-13 -4.136436407710735E-12 2.33131234332629E-8 -2.329846289027376E-8 1.413272526178619E-10
peri 3.778129804740188E-15 2.325990030624685E-14 2.335695759358373E-10 -2.329846289027376E-8 2.334396834784526E-8 -1.412416439506257E-10
i -1.066930930682704E-15 3.600833077248366E-15 -8.183116425930321E-14 1.413272526178619E-10 -1.412416439506257E-10 1.590279067838023E-11

Ephemeris | Orbit Diagram | Orbital Elements | Mission Design | Physical Parameters | Discovery Circumstances | Close-Approach Data ]

Physical Parameter Table
Parameter Symbol Value Units Sigma Reference Notes
absolute magnitude H 14.2   n/a MPO337539  
diameter diameter 8.412 km 0.268 urn:nasa:pds:neowise_diameters_albedos::2.0[mainbelt] (http://adsabs.harvard.edu/abs/2011ApJ...741...68M)  
geometric albedo albedo 0.063   0.005 urn:nasa:pds:neowise_diameters_albedos::2.0[mainbelt] (http://adsabs.harvard.edu/abs/2011ApJ...741...68M)  

34022 (2000 OY23)          Discovered 2000-Jul-23 by LINEAR at Socorro
Reference: 20020128/Numbers.arcLast Updated: 2004-04-19

[ show close-approach data ]
Alternate Designations
 2000 OY23 = 1931 TM1 
Ephemeris | Orbit Diagram | Orbital Elements | Mission Design | Physical Parameters | Discovery Circumstances | Close-Approach Data ]
ABOUT SSD CREDITS/AWARDS PRIVACY/COPYRIGHT GLOSSARY LINKS
FirstGov 2020-Jul-13 05:36 UT
(server date/time)  
NASA Home Page
Site Manager:   Ryan S. Park
Webmaster  Alan B. Chamberlin